Location: Deurze
(52.9838°N, 6.6090°E)
Time: 19:05:11
(UTC+00:00)

Ariane Rocket - Pass Details

Date: 11 March 2026
Orbit: 754 x 764 km, 98.4° (Epoch: 20 April)

Event Time Altitude Azimuth Distance (km) Brightness Sun altitude
Exits shadow 19:57:41 32° 56° (NE) 1,292 3.9 -22.4°
Drops below altitude 10° 20:01:54 10° 360° (N) 2,301 5.8 -22.9°
Sets 20:04:24 0° 350° (N) 3,229 6.8 -23.3°
